Regional Weather Roundup
Issued by NWS

Home | Current Version | Previous Version | Graphics & Text | Print | Product List | Glossary On
Versions: 1 2 3 4 5 6 7 8 9 10 11 12 13 14 15 16 17 18 19 20 21 22 23 24 25 26 27 28 29 30 31 32 33 34 35 36 37 38 39 40 41 42 43 44 45 46 47 48 49 50
000
ASUS43 KLOT 211710
RWRIL

ILLINOIS REGIONAL WEATHER ROUNDUP
NATIONAL WEATHER SERVICE CHICAGO/ROMEOVILLE IL
1100 AM CST SUN DEC 21 2014

NOTE: "FAIR" INDICATES FEW OR NO CLOUDS BELOW 12,000 FEET WITH NO
SIGNIFICANT WEATHER AND/OR OBSTRUCTIONS TO VISIBILITY.

* THESE STATIONS ARE NOT UNDER NWS QUALITY CONTROL. THEY ALSO MAY NOT
  REPORT WEATHER SUCH AS PRECIPITATION OR FOG.

ILZ001-002-007-009-015-016-024-211800-
NORTHWEST ILLINOIS

CITY           SKY/WX    TMP DP  RH WIND       PRES   REMARKS
MOLINE         CLOUDY    39  33  79 SE10      30.09F WCI  32
STERLING*      CLOUDY    37  32  81 S5        30.12F WCI  34
SAVANNA*       CLOUDY    37  33  87 S9        30.10F FOG     WCI  30
$$

ILZ003-004-008-010-011-017-018-211800-
NORTH CENTRAL ILLINOIS

CITY           SKY/WX    TMP DP  RH WIND       PRES   REMARKS
ROCKFORD       CLOUDY    35  30  82 S16       30.15F HAZE    WCI  25
FREEPORT*      CLOUDY    34  32  92 S10       30.12F FOG     WCI  26
ROCHELLE*      CLOUDY    33  31  92 S14       30.14F FOG     WCI  24
DE KALB*       CLOUDY    32  30  92 S14       30.15F FOG     WCI  22
PERU*          CLOUDY    37  32  83 S14       30.16F HAZE    WCI  28
$$

ILZ005-006-012>014-019>023-211800-
NORTHEAST ILLINOIS

CITY           SKY/WX    TMP DP  RH WIND       PRES   REMARKS
CHICAGO-OHARE  CLOUDY    34  28  79 S13       30.17F WCI  25
CHICAGO-MIDWAY CLOUDY    36  28  73 S13       30.19F WCI  27
AURORA         CLOUDY    35  28  75 S14       30.16F HAZE    WCI  26
LANSING*       CLOUDY    33  28  81 S12       30.21F WCI  24
JOLIET*        CLOUDY    33  28  82 S9        30.19F WCI  26
WAUKEGAN       CLOUDY    34  28  79 S12       30.15F WCI  25
DUPAGE AIRPORT CLOUDY    34  29  82 S10       30.16F HAZE    WCI  26
KANKAKEE*      CLOUDY    33  28  81 S12       30.21F WCI  25
WHEELING       CLOUDY    35  28  75 S10       30.18F WCI  27
MORRIS*        CLOUDY    34  31  88 S17       30.18F FOG     WCI  24
ROMEOVILLE*    CLOUDY    33  29  84 S14       30.18F WCI  23
NORTHERLY ISL    N/A     34  27  76 S8          N/A  WCI  27
$$

LMZ740>746-211800-
SOUTHERN LAKE MICHIGAN

STATION/POSITION SKY/WX   TEMP    WIND        PRES    VSBY  WAVE
                          AIR SEA DIR/SP/G                  HT/PER
                          (F)     (DEG/KT/KT) (MB)    (MI)  (FT/S)
WAUKEGAN HARBOR            34     180/ 15/ 18   N/A
HARRISON CRIB              33     170/ 17/ 19   N/A
BURNHAM HARBOR             34     180/  8/ 12   N/A
CALUMET HARBOR             33     170/ 10/ 15 1021.3F
$$

ILZ025>027-034>036-040-047-049-050-058-095>099-211800-
WEST-CENTRAL ILLINOIS

CITY           SKY/WX    TMP DP  RH WIND       PRES   REMARKS
QUINCY         CLOUDY    41  34  76 S12       30.09F
GALESBURG*     CLOUDY    38  34  87 S13       30.11F WCI  30
MACOMB*        CLOUDY    39  36  89 S13G20    30.14F WCI  31
JACKSONVILLE*  CLOUDY    40  34  78 SE13      30.15F
PITTSFIELD*    CLOUDY    40  36  83 SE12      30.13F
$$

ILZ028>032-037-038-041>044-048-051>054-059>061-211800-
CENTRAL ILLINOIS

CITY           SKY/WX    TMP DP  RH WIND       PRES   REMARKS
PONTIAC        CLOUDY    36  32  85 S13       30.19F WCI  27
BLOOMINGTON    CLOUDY    36  32  85 S14       30.18F FOG     WCI  27
DECATUR        CLOUDY    35  29  78 S10       30.21F HAZE    WCI  27
PEORIA         CLOUDY    40  31  70 S15       30.15F
LACON*         CLOUDY    37  31  81 S10       30.15F WCI  29
LINCOLN*       CLOUDY    38  32  80 S12       30.20F WCI  31
SPRINGFIELD    CLOUDY    38  31  76 S14       30.19F WCI  30
TAYLORVILLE    CLOUDY    34  30  86 SE12      30.20F WCI  25
$$

ILZ033-039-045-046-055>057-062-063-211800-
EAST-CENTRAL ILLINOIS

CITY           SKY/WX    TMP DP  RH WIND       PRES   REMARKS
CHAMPAIGN      CLOUDY    36  29  75 S10       30.21F WCI  28
DANVILLE*      CLOUDY    32  27  82 S9        30.20F WCI  24
RANTOUL*       CLOUDY    35  30  82 S13       30.21F WCI  27
MATTOON        CLOUDY    34  27  75 SE10      30.22F WCI  26
PARIS*         CLOUDY    34  31  89 SE9       30.24F WCI  27
$$

ILZ079-100>102-211800-
SOUTHWEST ILLINOIS

CITY           SKY/WX    TMP DP  RH WIND       PRES   REMARKS
ALTON          CLOUDY    37  32  81 SE9       30.21F WCI  31
BELLEVILLE     CLOUDY    38  32  79 SE9       30.20F WCI  31
CAHOKIA*       CLOUDY    41  34  76 SE14      30.19F
SPARTA*        CLOUDY    37  31  78 E3        30.22F
$$

ILZ064>066-069>071-074>076-080>082-084>086-088>090-092>094-211800-
SOUTH-CENTRAL ILLINOIS

CITY           SKY/WX    TMP DP  RH WIND       PRES   REMARKS
CARBONDALE     PTSUNNY   39  27  62 VRB3      30.23F
CAIRO*         MOSUNNY   42  33  71 E3        30.22F
EFFINGHAM*     PTSUNNY   38  26  64 SE7       30.25F WCI  32
MARION         PTSUNNY   41  30  65 SE8       30.23F
MT. VERNON     MOSUNNY   39  28  65 SE7       30.24F WCI  34
CENTRALIA*     MOSUNNY   39  27  61 SE7       30.22F WCI  34
SALEM*         PTSUNNY   40  30  67 SE6       30.22F
METROPOLIS*    MOSUNNY   41  32  69 SE3       30.22F
$$

ILZ067-068-072-073-078-083-087-091-211800-
SOUTHEAST ILLINOIS

CITY           SKY/WX    TMP DP  RH WIND       PRES   REMARKS
LAWRENCEVILLE  SUNNY     36  29  75 SE6       30.25F HAZE    WCI  31
FLORA*         SUNNY     37  29  71 SE7       30.24F WCI  32
FAIRFIELD*     MOSUNNY   38  30  72 SE5       30.22F WCI  35
HARRISBURG*    SUNNY     37  32  82 SE3       30.25F HAZE
ROBINSON*      MOSUNNY   35  30  81 SE8       30.26F WCI  29
CARMI*         SUNNY     40  33  76 SE12      30.23F
$$

ABBREVIATIONS USED IN REMARKS
   TC - TEMPERATURE IN CELSIUS
  WCI - WIND CHILL INDEX
   HX - HEAT INDEX
  VSB - VISIBILITY
$$




USA.gov is the U.S. government's official web portal to all federal, state and local government web resources and services.